Powrót do katalogu

ION SCV-012

AktywnyNaukaSSO
NORAD 60573·PAYLOAD·🇮🇹 Italy

Wystrzelony Aug 16, 2024 z Vandenberg Space Force Base

Loading…

Następne Przeloty (najbliższe 24 godziny)

TLE

ŚwieżeSource: Space-Track

Epoka: Sep 13, 2026, 22:03 UTC

1 60573U 24149DK  26256.91887080  .00000379  00000-0  39715-4 0  9991
2 60573  97.6705 329.0457 0004241 129.9434 230.2160 14.95087828113179

Śledź ION SCV-012 w czasie rzeczywistym z AllMySat

Download on the App Store